Theta_e
303 304 307 311 315 318 320 322 322 322 323 323 322 323 324 324 323 323 324 325 325 325 325 325 325 324 324 326 326 326 325 324 325 325 326 326 325 325 325 325 326 328 328 328 328 325 326 326 325 323 322 320 318 317 316 317 316 313 313 311 314 313 312 311 313 312 311 311 311 309 310 308 307 307 308 308 307 306 303 303 303 303 304 303 305
298 300 305 308 312 314 317 320 319 320 321 322 322 323 324 324 324 324 324 324 325 326 326 325 326 327 327 326 325 324 324 325 325 323 325 324 324 324 324 324 326 328 326 329 328 328 327 326 325 324 322 321 320 320 320 316 317 315 314 313 310 313 313 313 313 312 308 309 309 309 309 310 308 305 306 304 304 304 304 303 303 303 304 303 303
297 299 301 305 309 312 315 317 319 321 322 322 323 322 322 323 324 324 325 325 325 326 326 326 326 326 327 323 326 319 316 322 323 322 322 324 324 324 324 324 324 324 326 326 328 328 327 327 326 326 325 323 322 320 316 316 316 316 314 315 311 308 311 313 312 314 312 305 306 306 305 303 304 302 295 297 299 302 300 300 301 300 302 301 301
297 298 300 301 305 310 312 315 317 319 319 319 321 322 323 322 323 324 324 325 326 326 324 327 326 324 321 319 321 324 320 317 317 316 320 322 323 321 323 324 323 324 325 326 327 328 327 326 325 324 325 323 323 322 319 319 319 317 317 315 315 313 310 310 310 311 312 310 308 305 303 301 302 299 292 301 301 302 299 301 299 301 300 300 297
296 296 297 298 299 306 311 314 316 317 318 320 321 323 324 323 323 324 325 325 326 324 324 324 321 317 316 313 314 316 313 313 313 319 320 320 321 320 320 320 322 323 325 327 325 328 328 327 325 324 323 323 323 322 322 321 320 320 319 317 316 317 314 309 306 309 311 314 312 305 303 299 300 300 301 308 301 304 301 300 299 299 300 300 297
295 296 297 297 299 302 308 311 314 316 317 319 321 323 323 323 323 323 323 324 325 325 324 323 322 323 319 320 320 319 320 317 319 321 317 318 321 318 314 317 319 321 323 325 326 325 326 326 325 325 324 323 322 323 322 320 320 320 319 319 317 317 317 312 311 308 310 310 312 313 310 307 306 304 306 303 306 305 304 302 300 299 299 299 300
293 293 293 294 296 298 302 309 313 315 317 319 319 320 321 322 322 322 323 323 323 323 323 321 322 322 322 323 323 322 321 319 312 310 316 313 312 316 318 314 318 321 321 323 324 325 326 324 325 324 324 324 321 321 320 319 319 319 317 316 316 314 313 312 312 312 307 308 308 310 308 306 307 305 302 302 301 304 303 303 304 302 299 297 299
294 294 294 295 296 298 300 305 310 314 316 315 316 317 319 320 320 321 322 321 322 322 321 323 323 323 321 321 321 321 321 318 310 308 310 310 313 312 311 312 315 317 321 322 324 324 323 321 322 322 321 321 318 320 319 317 315 315 315 316 316 314 314 313 312 312 310 307 305 306 306 306 306 305 305 303 301 298 302 307 303 302 302 305 304
294 294 294 295 296 297 299 302 307 311 311 313 315 316 317 318 317 318 320 320 319 319 320 321 322 323 322 322 320 318 316 311 306 304 310 306 311 305 308 310 312 313 317 319 319 320 319 320 320 320 319 319 316 318 317 318 317 315 314 313 314 313 313 312 312 311 309 310 308 305 304 304 304 303 302 303 299 298 300 301 303 305 306 306 304
292 293 294 294 295 296 297 298 300 306 306 306 306 307 310 312 314 315 317 318 319 318 319 320 321 320 321 320 320 317 309 303 307 307 306 305 309 305 307 310 311 312 313 315 316 317 318 318 318 317 317 317 314 316 316 316 316 315 315 314 313 313 312 312 311 311 310 310 309 308 305 302 300 299 299 300 299 300 299 300 302 301 301 304 305
291 292 292 293 292 293 293 298 300 298 298 300 303 306 308 311 313 314 316 317 316 318 318 319 320 320 321 320 319 317 311 311 308 303 304 304 308 305 307 308 309 311 311 311 314 315 316 315 316 315 315 312 313 314 314 314 314 314 313 313 312 311 311 310 309 309 309 308 308 308 307 306 305 302 303 302 301 297 299 300 302 302 301 299 300
290 291 293 292 293 293 292 295 297 297 295 297 299 299 304 308 310 312 312 314 314 316 316 318 319 319 319 319 318 316 312 312 312 310 307 309 308 308 304 306 306 308 309 309 308 306 308 312 313 313 313 313 313 313 313 313 312 312 311 310 310 310 310 308 308 308 307 307 307 307 307 306 305 304 304 304 303 301 300 298 299 299 298 299 301
290 292 292 292 295 295 295 295 293 295 298 298 299 299 300 304 307 310 312 311 313 314 315 316 316 317 318 317 316 314 313 313 313 311 308 310 308 307 306 308 304 307 304 305 302 304 306 308 308 308 307 308 310 311 311 312 311 310 309 309 308 308 308 307 307 306 306 306 305 305 305 305 305 305 303 303 303 302 300 297 297 298 295 295 296
292 292 292 293 295 294 293 293 293 295 295 296 296 296 298 301 304 308 311 309 309 311 313 314 314 315 315 315 315 313 313 313 312 312 309 310 309 309 309 309 308 308 304 304 303 302 304 305 302 299 300 301 303 305 307 309 309 308 307 307 306 306 306 305 305 305 304 303 304 303 302 303 302 300 299 300 302 300 297 295 294 293 293 292 293
288 289 292 293 293 292 293 293 293 293 294 294 294 295 295 299 301 304 307 305 307 310 311 312 313 311 311 313 313 313 313 312 311 311 309 308 306 308 305 303 307 301 303 302 302 302 301 302 300 299 299 299 300 302 305 308 308 307 307 306 305 303 302 303 303 303 302 301 301 301 300 300 299 298 300 300 301 300 299 297 294 290 289 289 287
291 290 291 291 290 290 291 292 293 293 293 293 294 295 296 298 298 302 306 305 305 306 309 311 311 309 309 311 311 310 309 310 307 306 307 308 306 306 302 301 301 300 298 301 299 300 300 299 298 298 297 297 297 300 303 303 300 301 301 301 300 300 299 297 298 299 299 299 298 297 297 296 296 296 297 298 298 299 298 298 296 293 289 285 286
292 292 290 291 289 290 292 292 293 293 294 295 296 295 297 297 299 301 302 301 304 306 308 308 308 308 308 309 308 308 308 308 308 306 305 304 305 303 302 299 298 299 298 297 297 297 298 298 298 297 296 296 296 296 298 297 297 297 296 296 294 294 294 293 293 293 292 293 293 293 293 292 290 290 291 292 295 297 298 298 297 292 292 288 284
291 291 291 290 290 292 292 291 293 295 296 295 296 296 297 298 299 301 301 303 303 304 306 307 307 307 307 307 307 308 308 307 306 304 303 303 301 300 299 299 298 298 298 296 297 296 296 295 296 294 293 294 294 294 294 294 294 293 293 292 291 289 289 288 288 289 288 287 287 287 287 287 287 286 287 288 289 291 291 292 293 295 295 290 288
291 292 292 292 291 291 291 292 292 293 294 295 296 297 297 297 298 300 302 303 303 304 304 305 307 307 307 307 306 305 305 305 304 303 303 303 300 300 300 298 296 295 296 296 296 295 294 293 293 291 292 292 292 291 291 291 291 290 289 288 287 287 287 287 286 287 286 285 284 285 284 285 285 286 287 285 286 285 287 288 290 293 294 293 290
292 293 292 291 291 291 291 292 293 293 292 292 295 297 297 296 297 297 298 299 301 303 303 304 303 305 303 303 303 304 304 304 303 303 303 302 299 299 297 296 296 295 295 294 293 292 291 290 289 290 289 289 289 288 289 288 288 287 286 287 285 286 286 286 285 284 285 284 284 284 284 284 284 283 284 284 285 284 285 286 286 289 291 292 291
293 294 293 292 291 291 290 291 291 291 291 292 295 298 298 297 298 299 303 303 304 303 303 302 302 302 302 302 302 302 302 303 303 303 301 299 298 297 297 295 292 292 291 291 291 291 290 290 289 289 289 288 288 286 285 287 287 286 286 286 284 285 287 284 284 284 283 284 284 284 284 284 283 284 283 283 283 283 282 283 283 285 287 288 289
293 292 292 292 290 290 290 290 289 291 291 293 296 298 298 299 300 301 303 305 304 303 302 301 301 302 301 300 299 299 300 301 301 300 299 297 295 294 292 292 292 288 291 291 290 289 289 289 290 289 288 287 288 288 285 286 287 286 285 285 283 284 286 284 284 285 284 284 283 284 284 283 282 283 282 282 281 282 281 281 282 282 282 282 283
293 292 291 291 291 291 289 289 290 289 290 290 294 299 299 299 299 300 303 302 303 302 301 302 302 301 300 299 298 298 298 298 297 296 295 294 293 291 291 292 290 288 288 290 289 289 289 289 288 287 288 287 287 286 285 286 286 286 286 285 285 285 285 285 284 284 283 282 283 282 282 282 282 282 281 281 282 282 282 281 281 281 281 281 282
292 291 291 291 290 289 288 289 289 289 289 290 294 296 299 299 300 300 300 300 300 300 301 302 301 299 297 296 296 295 295 295 295 293 292 291 290 289 289 290 289 288 288 287 288 288 288 288 287 287 287 287 286 286 285 286 286 286 286 286 285 285 285 284 284 283 283 282 282 282 281 282 282 281 281 282 282 282 282 281 281 281 281 281 281
291 291 291 290 289 288 290 289 288 287 287 288 290 294 296 297 297 299 298 297 298 298 299 298 297 296 295 295 294 294 294 293 292 291 290 289 288 288 289 289 288 288 287 287 286 287 287 287 288 287 287 286 286 286 286 286 285 285 285 285 285 284 284 283 283 283 283 282 282 281 281 282 281 281 281 281 282 281 281 281 281 281 281 281 281
291 291 290 291 291 289 288 288 287 286 288 288 287 289 291 293 296 296 296 295 295 296 297 296 296 295 293 293 292 292 292 291 290 289 288 288 288 288 288 287 288 288 287 287 287 286 287 286 286 286 286 286 285 285 285 285 285 285 285 284 283 283 283 283 282 282 282 282 282 281 281 281 281 281 281 281 281 281 281 281 281 281 281 281 281
292 292 291 289 288 289 289 287 289 288 288 289 289 289 289 291 292 292 294 295 293 294 294 295 294 294 292 291 291 291 290 289 288 288 287 287 287 287 287 287 287 287 287 286 286 286 285 286 285 285 285 285 285 285 284 284 284 284 284 283 283 282 282 282 281 282 281 281 281 281 281 281 281 280 281 281 280 281 281 280 281 280 280 280 280
290 290 291 291 290 289 288 288 288 289 288 288 288 289 290 290 291 291 291 292 292 293 293 293 293 292 291 290 289 288 288 288 288 287 287 287 287 286 287 286 286 286 286 286 285 285 284 285 285 284 284 284 284 284 284 284 284 284 283 283 283 282 282 281 281 281 281 281 281 281 281 281 280 280 280 280 280 280 281 280 280 280 280 281 281
292 293 293 292 291 291 290 289 289 288 288 288 288 287 287 286 286 289 291 291 291 292 292 292 291 291 289 288 287 287 287 287 287 287 286 286 286 285 285 285 285 285 285 284 284 285 284 284 284 284 284 284 284 285 285 285 284 283 283 283 282 282 282 282 281 281 281 281 281 281 280 281 282 283 284 284 284 284 282 280 280 282 282 282 282
292 293 293 293 292 290 289 289 288 289 289 288 288 288 288 288 288 287 289 289 289 290 290 290 290 288 286 286 286 286 286 286 286 286 286 285 285 284 284 284 284 284 283 283 283 283 284 283 283 283 283 283 284 285 287 289 288 285 284 283 283 282 282 281 281 281 280 280 280 280 280 282 283 283 283 283 284 284 284 283 282 282 282 281 281
292 293 293 292 291 290 289 289 289 289 289 289 289 288 287 288 288 288 288 287 288 288 288 288 288 286 286 286 286 286 286 286 286 285 284 284 284 284 284 283 283 283 283 283 283 283 282 282 282 282 282 283 284 286 289 290 290 289 285 283 283 282 282 281 280 279 279 279 279 279 280 280 280 280 279 282 282 283 283 284 284 284 284 282 281
292 292 292 291 290 290 290 290 290 290 289 289 289 288 288 288 288 288 287 287 287 288 288 288 287 286 286 286 286 285 285 285 284 284 284 284 283 283 283 283 282 282 282 282 282 282 282 282 282 281 281 282 284 288 289 289 289 289 286 282 282 282 281 280 279 279 278 278 278 279 279 280 279 278 279 278 280 282 283 284 284 284 284 284 284
292 292 292 292 292 292 292 292 291 290 290 290 290 289 289 289 288 288 287 287 287 288 287 287 286 285 285 285 285 285 285 284 284 283 283 283 283 283 282 282 282 282 282 282 281 281 281 281 281 280 280 281 282 288 288 288 288 288 286 283 281 281 280 279 278 278 278 278 278 279 278 279 279 280 278 279 280 280 283 284 284 284 283 284 284
291 292 292 293 293 293 293 293 292 292 291 290 289 290 289 288 288 287 287 287 287 287 287 286 285 285 285 285 285 285 284 284 283 283 282 282 282 282 282 282 281 281 281 281 281 280 280 280 280 280 280 280 282 286 287 287 287 286 285 283 280 280 279 278 278 277 277 278 278 278 277 277 278 279 279 279 280 281 282 282 282 282 282 283 284
290 290 290 292 293 293 292 290 291 291 289 288 288 288 287 287 287 286 286 287 287 286 286 285 285 285 285 284 284 284 284 283 282 282 282 282 282 281 281 281 281 281 281 281 280 280 279 279 279 279 279 280 282 286 286 287 287 285 284 282 279 279 278 278 278 278 278 278 278 278 278 278 279 279 279 281 281 282 282 282 282 281 282 282 282
291 291 292 292 292 293 293 293 289 289 289 289 289 287 287 287 285 286 286 286 286 286 285 285 285 284 284 284 284 283 283 282 282 281 281 281 281 281 281 280 280 280 279 279 279 279 279 278 278 279 278 278 281 285 285 285 285 284 283 280 279 278 278 278 278 279 279 279 279 279 278 279 279 279 280 283 284 283 282 281 281 281 281 282 281
292 291 292 291 290 290 290 289 288 289 288 288 287 287 287 286 285 285 285 285 285 285 284 284 284 284 284 284 284 283 282 282 281 281 281 281 281 280 280 279 279 279 279 279 278 278 278 278 277 278 277 277 278 282 284 284 284 283 281 278 278 277 278 278 278 279 279 279 279 279 279 278 279 279 281 284 284 284 281 281 280 280 280 280 279
290 289 288 288 289 288 288 290 288 288 288 288 287 287 286 285 285 285 285 284 284 284 284 284 284 284 283 283 283 283 282 281 281 281 281 281 280 279 279 279 279 279 278 278 277 277 277 278 277 277 277 277 277 280 283 283 284 283 280 278 277 277 277 278 278 279 279 279 279 280 279 279 279 279 283 284 284 283 281 281 280 279 277 276 277
288 288 288 287 288 289 288 288 288 288 288 287 287 287 286 286 285 285 285 284 284 285 284 284 284 283 283 283 282 282 282 281 281 281 281 280 279 279 278 278 278 278 278 278 278 277 277 277 277 277 278 276 275 278 282 283 283 282 280 278 277 276 277 278 277 277 278 278 278 279 279 279 280 281 283 284 284 283 281 280 278 276 275 275 278
286 285 286 285 284 286 285 287 288 289 287 287 287 287 287 286 285 285 284 285 285 285 285 284 283 282 282 281 281 281 281 281 280 280 279 279 278 277 277 277 277 277 277 277 277 277 276 276 276 275 275 275 275 276 279 282 282 282 281 279 278 276 277 277 277 277 276 277 278 278 278 280 282 283 283 283 283 283 280 278 277 275 275 276 279
284 285 286 284 285 288 289 288 289 288 287 287 287 287 286 286 285 284 284 286 286 285 283 283 282 281 281 280 280 280 280 279 279 279 278 277 276 276 276 276 275 275 275 275 275 275 274 274 275 274 275 275 275 275 277 281 281 281 281 280 277 278 278 277 276 276 277 276 277 277 278 280 282 282 282 282 281 281 280 277 276 276 277 278 279
281 282 282 284 283 284 285 285 284 286 286 286 286 286 286 285 284 284 286 285 284 283 282 281 281 280 280 279 279 278 278 278 277 277 276 275 274 274 275 274 274 274 274 273 273 274 274 274 274 274 274 274 275 276 276 278 280 280 281 281 278 278 279 278 276 276 276 276 276 277 277 280 281 281 280 280 280 279 279 277 277 279 279 278 275
284 284 282 282 284 284 284 283 283 284 285 286 286 286 286 285 284 285 284 282 282 281 280 280 279 278 277 277 276 276 276 276 275 275 274 273 273 272 272 273 273 273 273 273 273 273 273 273 273 273 273 273 274 274 276 276 278 279 280 280 280 279 280 278 277 275 276 276 277 278 279 280 280 279 279 279 278 278 276 276 278 278 277 277 275
280 281 281 280 283 282 282 281 282 284 284 285 286 285 285 284 284 281 280 280 280 279 279 278 277 276 275 274 274 274 274 274 273 273 273 272 272 272 272 272 273 273 273 273 273 273 272 272 272 272 273 273 273 273 275 276 277 278 279 279 280 280 279 278 277 275 276 277 277 278 279 280 278 278 277 277 276 276 275 276 276 276 275 274 272
281 281 279 280 283 282 281 279 280 282 283 284 285 286 284 284 282 280 280 279 278 278 277 276 275 274 274 273 272 272 272 272 272 273 273 272 271 272 272 272 273 274 274 273 273 272 272 272 271 271 272 272 273 272 272 274 276 277 278 279 279 279 278 278 276 276 277 277 279 279 278 277 276 276 275 275 273 274 275 274 275 274 272 269 270
279 279 279 278 278 277 279 280 278 279 282 282 283 284 284 283 278 279 279 279 278 277 276 275 274 273 273 272 271 270 270 271 271 272 273 273 273 273 273 273 273 273 273 273 272 271 271 271 271 271 271 271 272 271 272 273 275 276 277 277 277 277 277 277 277 277 278 279 278 276 276 275 274 274 272 268 269 270 272 272 272 271 267 268 269
277 278 277 277 277 279 279 279 280 278 279 279 279 278 279 278 278 278 278 278 277 276 275 274 273 273 272 272 272 271 271 270 270 270 271 272 273 274 273 273 273 272 272 272 271 270 270 270 269 270 271 271 271 271 272 273 274 274 275 276 275 275 276 277 275 276 276 274 273 273 271 273 272 273 272 271 270 269 267 267 265 266 266 267 268
276 275 275 275 276 278 278 278 280 278 277 277 277 277 276 277 277 278 277 277 276 275 275 273 273 272 272 271 271 272 271 271 270 271 271 272 273 273 273 273 272 272 272 271 271 270 270 270 270 270 270 270 270 271 271 272 273 275 275 275 275 275 275 274 274 275 272 270 267 271 270 267 266 265 265 263 262 263 264 265 264 264 264 266 268
276 274 274 279 277 277 278 278 278 276 275 276 275 274 275 277 277 276 276 276 275 274 274 272 272 272 271 271 271 271 271 271 271 271 272 273 272 273 273 273 273 273 273 273 272 272 271 272 271 271 270 269 270 270 271 275 275 277 275 274 274 274 274 273 275 275 269 266 265 263 264 264 263 263 262 261 262 262 263 263 263 263 263 264 264
274 273 273 274 274 277 276 277 276 273 274 274 273 272 273 275 276 276 276 276 274 273 272 272 271 271 271 270 270 270 270 270 271 271 270 270 272 274 273 272 271 273 274 275 275 272 272 272 271 272 272 270 270 271 275 277 277 277 277 277 276 276 276 274 275 274 269 261 262 260 261 261 261 261 261 262 262 262 262 262 263 265 264 263 264
273 273 272 274 274 273 273 273 273 272 273 273 272 272 273 274 275 276 276 276 274 273 272 272 271 271 271 271 270 270 270 270 271 271 271 270 271 273 275 274 274 275 276 276 276 276 276 275 272 270 273 274 275 276 277 277 277 277 277 276 276 276 275 275 274 266 262 261 260 260 260 260 261 261 262 262 262 262 262 262 262 263 263 263 263
Wind_Speed
5 5 6 9 12 11 10 9 9 9 9 10 10 11 12 12 10 12 10 9 8 8 8 9 9 7 6 10 11 7 6 5 6 6 6 6 6 6 6 6 6 6 6 6 6 6 6 6 6 4 2 3 5 6 5 5 5 4 2 1 4 4 4 3 4 2 4 5 5 6 7 4 7 6 7 6 5 5 5 5 5 4 6 6 6
5 5 6 7 8 9 10 9 9 11 12 11 13 14 13 12 12 12 9 9 10 11 10 9 9 10 9 9 6 5 6 7 7 5 6 5 6 6 6 6 6 6 6 6 6 6 6 5 5 5 3 3 3 4 4 5 5 4 3 3 3 5 4 2 2 3 1 3 3 5 6 6 6 4 5 4 5 6 5 4 5 5 7 6 5
7 9 6 7 8 9 10 10 11 14 13 14 13 11 11 12 12 11 10 10 10 10 10 10 9 7 8 6 8 4 3 5 5 4 5 6 6 6 6 6 6 5 5 6 6 5 5 6 6 7 7 7 7 6 4 6 5 6 5 5 4 2 4 2 3 5 4 1 1 2 4 5 3 2 1 3 4 5 2 3 5 5 7 5 5
13 11 12 9 8 7 8 10 12 11 11 9 11 13 11 11 10 11 11 11 11 11 11 10 8 7 5 4 5 7 6 5 4 3 4 5 6 5 5 5 5 6 6 6 6 5 6 5 4 3 5 5 5 5 6 7 5 3 4 6 5 3 2 3 3 5 5 1 4 3 2 1 6 2 3 5 4 2 2 5 3 5 5 5 3
13 10 9 7 7 11 13 14 10 11 12 13 13 13 11 13 12 13 12 12 11 11 11 8 5 4 3 2 2 1 1 2 3 5 6 5 5 5 5 4 6 6 6 6 6 6 6 6 6 6 5 5 6 6 6 5 3 5 6 6 6 5 4 2 2 4 5 5 3 2 3 1 4 4 4 6 1 0 3 4 3 4 6 5 4
12 12 12 10 11 9 8 8 10 11 12 13 12 13 12 11 11 11 9 9 11 11 11 8 9 9 7 7 7 6 8 6 10 10 5 6 6 3 4 5 5 5 5 5 5 5 5 5 4 5 5 4 4 5 4 3 4 5 5 6 8 7 5 3 2 0 3 3 4 5 2 3 4 2 3 4 2 4 3 3 4 5 5 5 5
8 8 7 6 9 7 8 9 11 12 14 10 10 10 11 11 11 11 10 9 10 9 9 9 8 8 11 12 11 11 10 8 2 2 5 4 4 5 5 4 5 6 5 5 5 6 5 5 5 5 3 3 4 4 3 3 3 3 2 2 4 1 2 2 4 3 0 2 3 4 4 2 1 2 3 3 7 1 3 3 5 6 4 3 5
10 11 10 9 8 10 13 14 12 15 13 9 10 8 11 12 10 11 9 9 9 8 9 10 11 10 10 11 10 10 11 8 5 4 4 5 5 5 4 4 5 5 5 5 5 4 4 3 3 4 3 1 2 3 4 3 3 2 2 0 1 2 3 4 2 0 2 2 0 2 3 2 2 2 4 4 5 7 6 5 3 3 4 7 7
9 10 11 12 11 11 11 11 12 10 7 9 10 11 10 9 9 8 10 9 8 9 10 10 11 11 11 9 9 7 6 5 4 4 5 4 5 3 4 3 3 3 4 4 4 4 4 4 4 3 4 5 4 3 2 5 6 3 2 2 1 2 2 1 1 1 2 3 0 1 0 1 3 3 1 0 2 4 8 5 10 8 7 6 5
7 10 9 8 8 7 5 4 4 6 5 5 5 5 6 6 8 9 10 9 8 9 10 11 11 9 10 10 11 8 5 3 5 5 4 4 5 4 4 4 4 4 3 4 5 5 5 5 5 5 3 3 4 5 3 4 6 4 3 3 2 3 1 2 1 1 0 0 0 0 0 1 1 2 2 2 2 3 7 9 7 9 11 9 10
8 8 8 9 6 5 3 6 6 3 4 5 5 5 5 7 8 10 10 8 8 10 10 11 10 10 11 11 11 9 7 7 5 4 4 4 5 4 5 4 4 5 5 4 5 5 5 5 5 4 4 3 3 4 4 4 4 4 4 4 3 3 4 5 4 3 2 2 2 1 1 2 1 1 3 2 3 3 6 7 8 7 10 14 5
6 6 8 7 6 5 3 6 6 6 4 5 5 5 6 6 7 9 7 8 8 9 10 11 10 11 10 10 11 9 10 9 9 8 7 7 6 7 4 4 4 4 4 5 4 4 4 4 5 5 5 4 4 3 4 4 3 4 4 4 4 5 4 5 5 5 4 4 4 3 4 4 3 3 3 3 3 4 6 8 8 9 8 5 9
6 6 5 5 6 6 6 6 5 5 7 7 7 6 6 6 7 9 10 7 8 8 10 10 9 10 10 9 8 8 9 9 9 8 7 8 7 7 6 6 5 5 4 5 3 4 4 5 5 5 4 3 4 4 4 5 5 5 5 4 4 5 5 5 5 4 3 4 3 2 3 3 4 2 2 2 2 3 5 8 7 6 10 12 7
5 4 4 5 6 5 4 4 4 5 5 5 5 5 5 6 7 9 10 7 7 7 9 9 10 9 8 8 8 8 9 9 8 8 8 7 8 8 8 8 8 7 7 5 5 4 3 4 6 5 3 3 4 4 5 5 5 5 4 5 5 4 4 5 4 3 4 3 3 4 4 3 2 3 3 3 4 4 4 5 9 6 6 10 7
4 4 4 5 4 4 4 3 4 4 4 4 4 4 4 5 6 8 7 6 7 9 8 9 8 7 7 7 8 7 9 8 7 7 8 8 6 7 6 5 7 5 6 5 5 6 5 5 5 5 4 4 3 4 5 6 6 6 5 5 4 3 4 5 5 5 5 4 4 3 3 4 3 3 3 2 2 2 3 5 6 11 9 4 5
4 5 5 4 4 3 3 3 3 3 4 3 4 4 5 6 5 6 8 7 7 7 7 8 8 7 7 8 8 8 7 7 5 5 6 7 8 8 7 6 5 6 4 6 3 5 6 6 5 5 4 4 4 5 5 5 4 6 5 5 5 3 6 5 4 5 4 4 3 3 4 2 2 2 2 2 3 3 3 3 4 3 7 12 11
5 4 4 4 3 3 3 3 3 3 3 4 4 4 5 6 6 7 6 5 7 7 8 7 7 7 7 7 7 7 8 9 8 8 7 5 6 6 7 6 6 5 6 4 6 4 5 6 6 5 5 5 4 4 5 5 5 6 5 5 5 4 6 5 4 5 3 3 4 4 3 2 3 3 3 2 2 1 1 1 1 1 3 4 8
4 4 4 3 3 3 3 3 4 4 4 4 5 5 5 5 6 7 6 8 6 6 7 7 8 8 7 8 8 9 9 8 8 9 7 8 6 6 6 7 6 6 7 5 6 6 6 6 7 6 4 5 5 5 5 5 7 6 6 5 3 4 6 4 4 4 4 4 4 4 4 3 3 3 2 2 1 1 1 2 2 1 2 4 3
5 5 4 4 3 3 3 4 4 4 4 4 3 3 4 4 4 5 6 6 7 6 5 5 6 7 7 8 9 7 6 8 7 8 8 9 8 7 7 7 6 6 7 7 6 6 6 6 6 6 5 5 5 5 5 5 6 6 4 5 3 4 5 5 3 5 4 5 5 5 4 4 4 3 3 2 1 1 3 1 2 2 3 4 6
5 5 4 4 4 3 3 3 4 3 3 3 2 2 3 3 3 3 2 3 4 5 6 7 5 6 6 5 5 7 8 9 9 9 8 8 8 8 8 7 7 6 6 6 7 7 7 7 5 6 6 5 6 4 5 6 6 5 4 5 3 5 6 6 5 5 4 5 5 5 4 4 5 4 4 5 5 4 4 4 3 2 3 4 5
6 5 4 4 4 3 2 2 1 0 0 1 2 3 3 2 3 4 7 6 5 5 5 6 6 6 8 8 8 8 8 8 9 8 9 8 7 8 7 7 6 6 7 7 7 7 6 7 6 6 6 6 6 5 4 5 6 6 4 5 5 6 7 5 5 6 5 5 5 4 4 4 4 5 4 4 4 4 3 3 3 2 3 3 4
4 4 4 4 4 3 1 0 0 1 1 2 2 3 3 3 4 4 5 6 7 6 6 6 5 7 8 8 8 6 8 8 9 8 9 8 7 7 8 7 7 5 6 8 7 6 6 6 7 6 6 6 5 6 4 5 6 6 5 4 6 6 6 5 5 6 6 6 5 5 4 4 4 3 4 4 3 3 3 3 3 2 3 4 3
3 3 3 3 3 2 2 2 2 2 2 2 3 4 5 4 4 5 6 5 6 6 6 6 7 7 7 7 8 7 7 8 9 7 8 8 7 6 6 8 7 6 5 7 7 7 7 7 7 6 6 6 6 5 4 5 5 6 6 5 5 6 6 6 7 5 4 3 3 3 3 3 3 4 4 3 3 3 3 3 4 3 3 4 4
0 1 2 2 2 1 2 3 3 2 3 4 4 3 4 5 5 5 6 6 5 5 6 6 6 7 7 7 7 7 8 8 9 7 9 7 7 6 5 8 7 6 7 5 6 7 7 7 8 6 6 6 6 5 5 5 5 5 6 6 6 6 6 6 5 3 2 2 2 3 3 3 4 4 4 4 4 4 4 3 4 4 3 4 4
1 2 3 2 2 4 4 4 4 4 3 3 4 4 4 4 4 5 4 4 5 4 6 6 8 8 6 8 7 7 8 7 8 7 8 7 7 7 6 8 8 7 7 7 6 6 7 7 8 7 6 6 5 5 6 6 5 5 6 6 6 6 5 4 3 2 2 3 3 3 4 4 4 4 4 5 5 5 5 5 5 5 5 5 4
3 4 3 6 6 4 3 4 4 4 4 4 4 4 4 3 4 2 6 4 5 5 6 7 7 8 7 7 7 6 8 8 8 8 8 8 8 7 8 7 8 9 7 6 8 6 6 7 6 6 6 6 5 5 6 6 5 5 6 6 5 5 4 3 3 3 3 3 3 3 3 3 3 4 5 5 5 6 6 5 6 6 5 5 5
6 6 6 3 4 6 6 5 5 5 5 5 5 5 4 4 3 3 4 6 5 5 5 7 7 8 8 7 7 7 8 8 8 8 8 8 8 8 9 9 7 9 9 8 6 7 5 7 7 7 7 7 6 6 6 5 5 5 5 5 4 4 3 3 3 3 3 3 3 3 3 3 3 4 4 5 5 6 5 5 6 5 5 5 6
5 5 7 9 7 5 7 7 6 7 5 5 4 4 5 6 6 5 4 5 5 6 6 7 7 7 7 7 6 7 7 8 7 8 8 8 8 8 8 7 7 8 8 8 9 9 7 7 7 7 6 7 7 6 5 5 5 5 5 4 4 3 3 3 3 3 3 3 2 2 3 3 3 4 4 4 4 5 5 4 5 4 5 6 7
7 9 7 7 8 8 8 8 8 5 7 6 5 4 3 3 4 5 6 6 6 7 7 7 7 8 7 7 6 6 6 7 8 8 8 8 7 7 7 7 6 6 6 7 7 9 9 9 7 7 7 6 7 6 4 4 5 4 4 4 3 3 4 4 3 3 2 2 3 3 3 3 5 7 9 7 8 8 5 5 5 5 6 7 7
8 9 9 8 9 7 8 8 7 9 8 7 6 6 5 6 6 5 6 5 6 6 7 7 7 7 6 6 7 6 6 7 8 8 8 8 7 7 7 7 7 7 7 7 7 7 8 9 9 7 6 6 6 4 7 9 7 5 4 4 4 4 4 3 3 3 3 3 3 3 4 7 8 7 7 9 10 10 10 7 6 6 7 7 7
9 8 9 8 7 8 7 9 11 11 11 10 9 8 7 7 7 8 7 6 6 7 6 7 7 6 7 7 7 7 7 8 7 8 7 8 8 8 8 8 7 7 8 7 8 9 8 7 8 8 7 6 5 5 10 10 11 9 5 5 5 4 3 3 3 3 3 3 3 3 3 4 4 5 4 8 11 10 10 11 12 11 10 9 9
10 10 7 7 10 10 12 13 13 12 11 11 10 10 9 10 9 9 8 7 8 8 9 8 8 8 8 9 8 9 9 8 8 9 9 8 8 8 8 9 9 9 7 7 8 8 8 7 7 7 7 6 5 8 11 11 10 11 9 6 5 4 3 2 2 2 2 2 3 3 3 2 3 3 4 4 7 10 11 12 12 12 13 14 13
10 10 11 11 12 13 15 14 10 11 13 13 10 10 12 12 12 10 9 10 10 9 9 9 8 9 9 9 9 10 10 10 10 9 9 8 9 9 9 9 9 8 8 9 8 8 8 7 8 8 7 6 5 9 11 11 11 12 12 7 5 3 3 3 2 2 2 2 2 3 3 3 2 6 5 5 6 6 9 11 12 13 13 14 14
9 10 11 11 9 9 11 13 12 12 11 7 9 12 9 7 8 8 10 10 10 9 9 9 10 10 10 10 10 10 11 10 10 9 9 9 9 10 8 7 8 7 8 8 7 9 7 7 7 8 7 6 5 8 11 11 11 12 11 8 4 4 3 2 1 1 1 2 3 2 2 4 3 4 4 5 6 6 6 6 6 7 7 9 13
12 9 9 11 12 11 9 7 12 11 7 8 8 5 5 6 7 8 7 9 8 9 8 9 10 10 10 10 10 10 10 10 9 9 9 9 9 8 8 7 7 8 9 9 9 8 7 7 7 7 7 7 5 10 11 11 11 12 11 7 4 3 2 1 1 1 1 2 2 2 2 3 4 6 6 8 8 8 7 7 7 8 8 7 7
11 12 12 12 13 15 14 12 2 5 7 8 8 7 8 7 5 6 6 6 7 7 8 7 9 9 9 9 10 10 9 9 9 9 9 9 8 9 9 7 6 6 5 6 5 6 8 7 6 7 8 8 6 11 11 11 11 11 11 5 3 2 1 1 0 1 1 2 2 2 2 4 6 6 8 14 13 10 8 9 10 9 8 7 6
11 9 11 7 5 5 5 3 6 7 8 9 8 8 8 8 8 7 8 7 6 7 7 8 8 9 9 9 10 11 11 11 10 10 10 9 10 8 7 6 8 7 8 7 7 5 5 7 7 6 8 8 6 8 10 10 10 12 7 3 2 1 1 2 1 1 0 2 3 2 2 4 6 6 10 15 16 15 8 10 10 10 9 7 7
9 6 5 5 5 4 5 7 7 9 9 8 9 10 10 10 10 9 10 10 9 10 10 10 11 11 11 10 10 11 12 11 11 11 11 9 7 6 7 7 10 10 8 7 7 7 5 5 7 7 7 8 6 6 10 10 9 11 7 3 2 2 1 2 2 2 2 2 2 6 6 5 6 6 12 16 17 13 8 9 10 11 12 11 9
7 6 6 5 5 6 6 6 8 10 10 10 11 12 12 12 11 11 11 12 13 12 13 14 12 10 9 9 9 8 9 10 11 10 9 10 9 9 6 5 5 7 8 7 6 8 7 6 6 7 9 8 6 5 9 9 9 9 6 2 2 1 2 3 2 2 3 2 2 4 7 7 7 9 15 15 16 13 8 9 9 10 11 12 10
5 5 5 4 4 5 4 7 11 12 10 12 12 12 12 12 11 10 11 13 14 14 11 8 8 8 8 7 7 8 8 9 10 8 7 7 6 7 7 7 6 6 7 6 6 7 8 7 6 6 6 5 6 4 5 9 7 6 7 4 2 2 2 3 2 1 1 2 2 3 5 8 10 13 14 14 14 15 10 7 8 7 10 11 11
5 5 2 4 5 7 10 12 9 8 10 11 12 12 12 11 11 11 15 16 12 9 9 10 9 10 9 9 8 9 10 8 7 9 8 7 6 7 7 7 8 6 7 7 7 7 8 7 6 5 5 5 4 4 3 7 7 6 6 5 2 2 2 2 1 1 2 3 3 3 4 7 11 13 12 13 13 14 12 6 6 7 9 14 16
1 3 3 4 4 4 2 1 2 7 9 10 11 12 10 10 11 15 17 8 7 9 8 9 10 10 9 8 8 7 7 8 8 9 10 8 5 6 7 8 7 7 8 8 6 6 7 7 5 4 4 4 4 5 3 5 6 6 5 5 2 1 1 2 1 1 2 2 3 3 4 7 11 11 11 12 12 11 11 5 8 14 17 19 13
2 1 2 3 4 5 5 4 4 7 8 9 10 11 10 10 14 13 5 6 7 7 8 7 7 7 6 6 6 7 7 6 7 7 9 9 7 7 6 7 8 8 9 9 7 7 7 6 5 4 3 2 2 1 5 3 5 5 5 3 3 2 4 1 0 1 2 2 3 4 4 8 10 10 10 10 10 11 7 8 14 14 16 17 13
3 2 3 3 4 3 4 4 5 6 8 9 12 11 9 10 12 5 7 7 7 7 7 7 7 7 7 6 6 6 6 6 7 8 8 9 9 7 7 7 7 8 8 8 6 6 6 6 5 5 3 2 1 1 2 5 4 4 3 2 2 3 3 1 0 1 2 3 3 4 4 9 9 9 9 9 10 10 8 12 13 14 14 13 7
4 4 2 3 5 5 5 4 4 7 7 9 9 12 11 13 7 8 9 10 10 10 10 9 9 8 8 7 7 7 7 7 7 9 10 9 9 9 9 5 7 6 7 8 7 6 7 6 5 4 4 4 2 2 1 1 3 2 1 1 2 2 1 2 1 3 4 4 4 6 7 7 7 8 9 9 7 9 12 12 13 14 11 5 7
1 1 2 3 2 3 5 5 4 5 6 6 7 8 12 8 6 7 9 10 11 12 11 11 10 9 10 9 10 7 7 7 7 6 7 8 11 10 9 8 6 6 7 8 8 7 7 6 4 4 5 4 3 2 2 1 2 2 2 1 1 1 2 3 2 3 4 3 4 6 6 6 6 5 4 3 3 5 10 11 12 11 5 6 6
3 2 3 2 4 5 6 6 7 5 6 5 6 5 5 6 9 8 9 10 11 11 11 10 11 10 9 10 11 10 9 7 6 5 5 6 6 7 8 9 7 8 7 7 7 9 9 5 4 5 4 4 3 3 3 3 3 3 3 2 1 2 3 3 3 4 2 4 4 3 2 4 4 8 7 7 5 6 5 5 5 4 5 5 6
2 2 3 3 4 5 6 6 7 5 5 5 5 5 6 8 8 9 9 11 11 11 12 11 11 9 9 9 9 10 11 9 8 8 8 7 6 6 9 11 11 11 10 9 8 9 10 9 9 6 5 4 4 4 4 4 4 4 3 3 3 4 4 4 4 2 4 2 2 2 3 1 1 2 3 2 3 3 5 5 5 4 4 5 6
3 4 5 7 6 6 6 6 6 4 5 5 5 4 6 8 9 9 10 12 11 9 8 8 8 8 8 7 7 8 8 9 8 6 4 4 8 8 7 5 1 2 5 10 11 8 7 7 7 9 9 6 5 6 6 6 5 6 5 4 4 5 4 3 2 5 4 1 1 1 2 3 3 4 4 4 5 5 5 5 5 5 5 5 5
3 3 4 5 5 6 5 6 4 4 4 5 5 4 5 6 8 9 10 12 11 10 8 9 8 8 8 8 7 8 7 8 9 9 8 4 3 3 2 6 6 5 5 4 6 6 8 8 7 5 6 5 8 6 7 9 8 8 7 7 6 5 4 3 3 7 6 4 3 3 3 3 3 4 3 4 4 5 6 6 6 7 7 5 6
3 3 4 5 4 3 2 3 3 3 4 5 5 5 6 6 8 9 10 11 11 10 9 9 10 10 11 10 9 9 8 8 8 9 8 9 6 4 6 6 6 7 8 10 9 7 12 10 7 6 6 6 6 9 9 8 8 8 8 7 6 5 4 4 5 6 3 3 3 4 3 3 3 2 2 3 4 5 6 6 6 6 5 6 7
Wind_Direction
247 213 210 208 210 211 212 208 211 209 211 207 206 208 206 205 200 210 205 194 185 187 191 190 194 200 210 207 212 203 206 203 208 204 201 201 194 197 194 196 198 201 205 202 208 203 209 217 208 211 228 210 189 208 212 223 233 233 255 205 244 268 278 212 246 214 286 291 275 276 294 255 249 260 256 263 276 273 261 263 269 286 275 273 274
281 255 226 216 210 206 205 207 203 205 214 207 206 208 206 204 204 208 199 196 194 193 192 194 197 199 198 211 203 195 197 205 217 206 207 199 200 199 198 197 198 200 200 201 210 208 203 202 204 211 198 198 212 219 221 226 232 225 204 256 202 223 259 216 210 110 255 231 303 318 304 299 275 248 263 278 267 268 259 262 275 268 274 270 280
246 242 239 225 216 209 201 205 208 209 208 206 208 206 206 206 207 204 200 196 200 197 191 199 200 201 195 193 187 200 221 212 212 200 191 200 205 201 198 197 197 201 199 202 204 204 208 207 209 204 199 207 214 215 221 237 227 222 199 215 260 230 244 260 186 183 249 160 155 351 300 347 332 333 326 277 268 267 311 275 266 263 262 268 275
241 231 228 221 215 213 208 211 212 207 209 208 208 208 206 207 204 202 201 200 200 199 199 203 196 191 195 174 188 182 188 195 198 199 199 207 216 200 205 195 192 200 200 202 207 206 203 207 216 236 232 215 206 215 226 235 222 217 208 222 218 252 215 275 201 193 201 168 305 211 247 101 316 302 300 280 256 269 207 249 246 261 274 287 306
239 242 238 224 214 213 208 212 203 206 208 207 205 206 204 204 203 201 201 201 201 198 198 190 164 157 143 81 90 120 26 148 182 225 209 206 208 205 205 190 197 200 201 204 202 208 206 210 214 222 221 219 218 226 229 228 217 220 218 223 195 205 245 235 261 192 209 210 223 316 321 16 227 269 336 296 1 332 279 253 279 276 278 282 286
230 233 230 221 219 223 221 215 207 212 212 213 207 207 203 202 200 202 202 200 202 200 193 181 182 179 172 180 190 199 213 199 211 215 194 205 211 179 200 198 197 203 203 203 205 209 213 212 212 221 223 229 225 227 227 216 234 225 229 220 214 213 219 223 281 303 233 215 225 226 231 285 319 288 343 308 334 242 268 322 285 263 268 278 292
238 249 247 231 227 220 226 218 214 213 219 206 207 208 204 202 200 198 199 201 202 197 186 182 188 191 192 198 203 205 213 227 197 146 174 199 186 197 205 195 198 198 205 202 204 205 207 209 211 208 209 226 215 205 194 205 214 217 220 214 247 164 146 230 241 250 253 254 249 271 313 280 192 343 284 302 307 326 14 321 300 277 266 267 276
228 231 233 232 228 212 216 213 209 214 212 200 206 199 201 203 195 196 197 200 197 187 183 188 192 195 199 206 206 209 211 211 166 177 167 164 179 206 194 194 194 198 196 199 199 197 197 201 194 170 151 148 161 155 144 133 124 98 117 215 191 171 171 197 226 177 217 286 238 237 262 306 340 248 239 244 283 299 309 299 242 275 334 306 294
223 230 229 226 222 221 221 218 221 223 210 200 202 201 199 197 195 193 198 195 194 184 185 192 197 196 199 201 208 219 207 188 156 146 157 165 177 176 165 163 152 159 166 157 150 137 132 121 102 90 116 116 108 100 87 105 85 66 58 88 154 162 186 167 122 221 181 229 189 331 347 286 283 239 208 131 288 312 309 325 317 315 300 281 262
232 233 238 237 233 236 240 274 279 231 222 220 214 197 197 189 194 192 200 193 190 189 188 193 197 192 197 201 206 202 167 140 150 156 160 166 170 177 162 153 149 137 137 141 132 129 119 110 109 110 102 112 124 122 109 88 99 100 110 106 92 104 118 141 132 247 159 59 95 179 68 297 328 16 28 356 261 232 282 307 303 312 315 311 318
232 233 236 239 245 252 255 231 236 260 225 202 205 197 189 192 195 199 203 191 188 190 188 196 195 195 201 201 202 193 176 160 149 152 144 150 161 166 161 158 152 145 139 130 125 128 123 123 122 124 127 128 118 112 131 128 129 126 112 106 94 87 77 74 78 69 78 76 58 63 48 79 40 290 321 342 351 316 313 305 314 312 308 306 277
243 241 245 244 258 252 226 233 224 219 203 210 208 196 196 197 192 203 205 198 194 192 191 197 195 200 204 199 198 189 172 172 176 176 176 172 166 162 154 133 137 133 130 125 115 113 119 120 125 128 135 139 132 133 117 112 113 117 106 83 77 72 73 78 75 75 67 77 78 63 59 65 63 48 24 7 341 322 316 308 314 318 297 249 297
242 237 240 233 219 216 211 227 220 218 209 207 207 199 197 194 194 199 210 198 198 193 197 198 195 201 199 197 194 175 176 178 180 176 177 168 164 150 154 154 146 137 153 137 160 144 141 124 108 107 92 95 124 107 98 98 88 76 84 84 74 71 72 75 78 78 77 79 95 84 84 66 59 40 48 23 335 332 337 316 300 309 296 298 290
250 236 223 215 210 212 215 217 215 220 222 217 214 206 204 202 200 200 213 193 195 195 199 198 203 200 194 189 181 171 180 179 180 173 177 170 166 165 167 165 166 168 162 164 163 150 130 125 120 102 104 88 92 100 99 92 92 96 87 81 75 89 88 85 88 90 78 67 60 67 53 69 68 42 35 15 10 358 335 317 318 303 270 282 295
246 254 233 228 236 230 232 224 221 220 219 220 212 215 199 209 201 206 212 202 191 198 194 199 199 191 188 184 176 176 176 177 178 175 167 165 171 161 163 158 161 168 162 148 146 135 126 114 109 108 112 108 100 95 91 92 99 98 102 104 97 81 86 76 57 62 57 50 53 71 65 41 43 38 35 29 35 5 330 321 329 326 319 253 277
247 243 256 256 243 247 247 249 231 224 223 217 210 197 193 209 203 210 210 200 196 193 198 195 191 179 176 175 178 173 168 165 157 155 164 164 162 160 161 161 151 140 139 135 139 132 124 110 98 98 100 94 91 103 103 104 104 102 93 91 80 50 84 77 76 81 65 58 63 49 62 31 31 34 37 28 33 9 339 342 332 325 325 320 322
249 244 251 268 280 261 239 242 254 242 232 219 215 203 200 192 192 203 207 194 195 194 191 186 176 173 180 173 163 163 162 164 163 158 151 142 143 144 143 142 133 130 132 129 122 109 115 115 110 104 98 102 95 93 98 102 97 90 96 91 88 79 86 78 74 81 60 62 54 46 56 13 353 5 13 22 6 332 299 293 292 290 319 304 319
263 271 264 254 250 249 241 241 232 229 227 222 218 206 203 202 197 195 189 188 194 185 181 176 171 173 168 167 168 167 165 158 150 147 144 134 130 125 124 130 138 137 128 127 120 117 109 112 111 108 105 98 100 94 96 98 99 93 97 85 97 104 92 74 55 73 56 47 38 28 24 0 343 10 345 329 0 314 304 289 255 271 285 292 281
267 263 266 269 261 248 227 222 227 230 236 237 252 219 204 203 205 198 196 193 182 177 168 167 167 164 165 164 159 151 145 139 138 139 141 138 142 143 139 134 125 126 124 125 119 117 113 106 112 111 102 98 92 99 104 98 103 103 90 92 81 97 94 82 60 68 54 59 39 21 355 0 352 353 340 348 346 30 333 340 316 308 297 286 290
250 248 245 241 247 242 234 230 234 239 243 250 225 213 220 203 177 179 147 141 147 153 154 153 154 142 134 125 128 137 140 142 144 143 142 141 145 139 134 133 138 132 124 125 126 124 122 119 114 113 105 103 99 96 103 105 95 99 113 97 88 91 84 77 62 57 65 70 60 33 358 352 347 354 0 360 357 1 15 354 345 334 303 290 287
239 233 229 231 240 254 267 290 310 343 59 121 155 176 176 155 165 167 156 155 157 157 151 148 141 137 137 139 139 138 135 136 135 138 134 137 136 136 136 134 124 127 129 126 122 125 124 123 119 115 116 117 112 105 106 111 105 103 89 101 82 77 81 63 68 49 52 55 42 26 7 353 357 1 340 338 345 341 350 345 328 333 284 279 281
237 231 219 221 238 246 269 24 43 83 103 140 139 140 158 168 168 163 153 164 158 159 150 143 142 142 139 136 135 133 135 135 132 133 130 133 134 132 132 127 124 132 129 119 121 125 123 122 117 118 116 115 112 116 124 115 115 106 93 85 102 85 78 67 61 45 27 30 29 18 350 343 345 344 324 330 328 333 346 349 331 318 292 291 279
245 221 223 228 220 208 198 184 175 184 189 179 168 171 172 167 163 170 161 170 164 154 147 142 139 136 133 132 132 134 132 131 126 128 128 129 126 125 132 124 122 119 101 123 130 128 125 121 116 120 121 117 118 117 115 108 106 106 100 81 77 77 71 60 49 39 25 14 21 3 322 330 337 352 338 329 328 338 337 346 325 317 307 292 287
287 188 208 222 211 164 156 176 184 185 185 192 190 186 178 174 174 164 166 158 148 142 138 133 127 123 129 128 125 126 126 128 125 127 125 124 124 120 119 116 116 115 121 118 124 128 124 124 124 123 121 120 112 106 96 88 95 96 90 85 73 66 63 63 65 44 24 23 4 0 346 353 350 353 340 340 339 341 344 338 324 315 304 298 286
233 228 217 206 196 195 205 204 199 209 212 203 191 190 185 185 173 168 153 149 132 132 131 127 129 126 128 127 127 131 129 126 123 125 125 124 123 122 119 118 121 123 127 127 120 123 124 128 127 125 118 108 108 105 97 87 78 80 85 80 70 67 65 69 73 64 26 26 11 9 342 351 353 348 335 343 336 341 338 337 331 319 314 301 297
224 234 225 219 215 215 217 218 217 215 205 201 203 197 190 179 178 152 144 131 131 129 135 133 135 133 134 134 135 134 134 132 131 129 132 131 130 127 123 124 135 133 132 132 132 129 126 119 110 109 106 103 95 88 87 88 82 76 73 73 76 76 81 66 54 38 28 21 10 355 344 342 345 351 333 331 338 335 333 331 324 318 312 307 303
216 216 225 240 235 221 217 218 216 211 210 206 194 189 183 169 154 129 146 140 138 136 139 136 140 138 140 145 144 141 136 137 137 135 133 132 131 132 135 143 145 140 140 135 126 117 111 113 113 108 103 102 94 86 85 84 80 74 79 84 78 78 69 64 55 42 28 17 3 341 332 342 347 342 335 328 326 324 323 319 311 310 309 309 305
238 229 220 220 221 218 215 214 212 213 210 213 207 195 181 174 165 149 139 141 140 141 142 139 141 143 144 143 138 135 137 136 135 136 137 134 135 139 142 138 137 137 136 135 133 125 122 113 113 108 107 102 97 91 88 90 89 92 91 85 85 78 65 52 49 34 28 8 348 338 347 348 344 329 323 315 321 315 315 315 311 311 306 305 301
228 230 229 222 219 216 215 213 212 205 208 208 199 191 170 156 153 156 153 161 155 150 151 151 147 149 149 141 137 138 136 135 138 136 133 135 136 134 131 130 128 127 123 125 127 126 121 111 101 102 101 92 90 92 99 102 97 90 89 84 80 71 62 50 41 32 17 7 351 352 352 341 331 327 329 332 330 334 334 327 316 315 313 312 313
232 235 229 225 224 217 216 210 209 207 203 199 194 192 185 174 171 170 166 164 153 157 150 151 152 149 143 143 140 137 138 136 137 136 137 138 136 135 134 133 132 129 126 125 120 115 114 118 116 106 98 93 90 89 95 98 98 102 92 91 79 70 63 57 46 27 3 359 351 350 339 333 332 332 335 336 341 340 337 333 327 329 325 321 315
239 242 235 227 222 221 215 212 213 205 202 196 193 185 178 179 177 174 173 164 157 152 155 155 154 150 149 146 144 147 146 147 143 137 141 141 141 141 138 135 133 133 130 129 123 117 116 117 117 116 105 98 94 91 87 82 82 87 92 83 77 65 63 52 45 35 352 338 335 340 335 327 327 335 337 339 342 337 333 330 328 325 324 320 319
241 239 235 227 223 218 216 217 213 207 200 196 191 184 176 188 179 178 170 160 162 164 162 166 158 154 156 156 155 153 151 149 148 152 150 148 144 143 143 142 139 135 133 126 118 119 119 120 113 107 103 103 97 87 84 81 81 88 91 84 78 71 62 52 43 18 345 333 321 327 326 323 328 336 335 322 320 326 328 325 325 324 320 316 309
239 234 226 222 220 218 217 220 214 207 205 205 184 175 192 185 179 176 157 168 172 169 165 162 160 159 164 165 161 159 156 157 161 155 151 150 151 148 148 148 147 143 132 125 127 121 119 117 114 112 108 101 91 86 88 87 89 88 81 77 72 69 57 46 21 0 331 318 313 321 325 328 323 332 322 305 290 289 303 312 315 315 310 306 306
245 237 228 229 225 227 224 219 215 214 210 188 186 193 191 174 166 160 168 171 166 170 167 166 164 169 168 167 165 163 163 162 157 155 155 157 156 156 152 144 136 135 129 124 121 117 118 115 117 116 111 102 90 87 90 90 90 86 78 75 67 58 54 43 16 320 308 309 313 331 331 332 322 320 310 298 295 298 300 300 296 296 290 290 294
242 247 240 232 226 227 231 223 220 207 180 166 189 181 148 154 164 168 173 167 173 166 171 170 171 172 170 167 166 166 164 161 158 158 158 159 155 146 145 148 144 142 140 137 135 125 119 119 121 119 113 101 87 86 88 88 90 86 78 74 61 60 63 46 332 294 282 296 306 318 318 322 330 335 317 323 319 313 311 309 302 294 291 289 288
233 229 236 226 221 220 217 224 172 142 180 181 179 159 158 165 152 166 169 177 172 173 172 168 175 176 174 171 166 164 161 159 159 159 159 157 154 154 148 145 128 114 105 110 102 111 123 123 124 120 112 98 81 82 87 88 90 89 84 74 86 81 134 144 275 204 311 302 295 299 303 335 340 323 315 326 328 328 320 311 305 299 295 295 290
241 227 237 237 240 241 229 160 164 175 166 183 163 159 157 151 162 170 167 171 171 179 179 177 179 178 178 175 171 166 165 165 164 162 162 159 155 148 142 144 131 133 131 125 127 119 124 122 117 115 109 100 83 77 90 91 92 98 89 90 115 134 146 148 116 72 272 308 300 309 336 345 325 303 310 330 332 334 320 313 310 310 310 308 309
243 249 242 232 219 196 180 172 168 180 181 164 163 160 158 162 172 170 171 177 178 187 183 182 185 182 179 176 175 171 168 167 167 168 162 157 149 142 152 159 146 145 136 136 131 117 109 108 111 107 105 106 94 76 93 94 98 105 109 115 141 151 170 152 106 40 18 341 326 358 349 323 312 298 326 335 334 335 322 318 319 323 326 326 317
251 248 254 237 215 187 176 164 166 180 185 165 160 162 163 176 177 179 181 182 190 189 186 187 184 176 174 174 171 169 169 167 168 166 161 157 159 155 147 135 130 124 126 129 127 118 112 96 95 100 96 96 98 76 92 101 102 109 114 131 138 149 126 79 54 29 357 347 342 344 340 331 325 327 334 334 335 337 332 335 337 332 326 322 322
273 263 235 222 170 121 148 173 188 196 166 164 161 168 177 177 183 173 183 194 198 195 183 170 163 164 163 161 164 166 168 169 165 151 148 148 135 132 140 131 123 123 126 123 118 116 113 105 98 93 92 96 99 83 89 107 108 101 110 125 143 129 89 61 26 356 320 340 337 342 329 326 331 333 335 336 340 343 344 346 341 328 322 322 331
284 270 215 164 185 182 188 196 198 169 163 166 165 167 183 183 175 179 198 203 190 169 165 167 160 159 163 166 164 169 167 164 158 152 142 135 141 140 133 131 129 123 118 117 117 116 109 104 97 92 92 92 92 89 90 114 110 104 94 101 119 69 73 68 341 301 340 341 335 335 303 317 330 334 340 345 346 348 351 351 327 328 331 328 333
281 246 186 184 185 213 211 193 158 160 164 165 168 178 180 177 178 200 207 176 156 164 158 157 163 165 162 162 162 158 157 153 147 144 141 135 120 121 129 131 130 131 128 122 123 118 114 108 98 91 95 94 88 92 103 110 108 100 92 86 116 71 44 107 271 345 333 320 325 316 297 316 332 344 350 350 355 357 355 342 340 342 339 340 340
242 216 232 168 180 194 194 177 155 159 163 170 171 180 184 181 199 207 157 142 149 145 147 147 146 150 154 152 150 151 149 145 144 141 135 131 130 127 129 132 134 132 131 131 131 131 125 121 116 114 106 93 100 79 124 109 106 107 93 79 68 61 28 32 199 280 306 302 290 293 277 323 347 352 355 2 3 2 359 351 351 350 349 345 339
261 242 215 181 184 172 165 157 159 163 166 169 175 179 184 192 208 132 131 127 131 133 132 136 141 142 138 140 141 137 132 136 140 138 134 136 139 136 135 143 144 141 141 137 141 139 138 140 138 135 130 129 146 200 123 117 116 103 85 71 52 43 24 50 33 218 273 281 283 293 321 349 359 1 7 6 4 4 0 358 358 358 355 345 328
220 231 204 182 181 176 162 160 172 170 175 177 182 182 184 199 185 139 149 149 143 142 144 147 149 149 148 146 139 144 148 147 153 151 147 146 141 147 140 151 144 146 148 149 157 160 160 153 140 145 151 162 185 171 171 142 145 138 95 66 47 36 355 313 224 235 244 243 300 341 357 7 9 11 10 5 2 357 0 0 360 360 352 333 339
196 177 175 176 142 145 157 171 188 186 180 182 188 184 191 190 140 152 147 146 147 148 154 157 155 156 156 152 147 148 150 153 154 161 159 157 155 157 152 153 155 153 155 153 158 159 146 140 147 149 162 171 177 151 178 230 237 215 219 159 67 274 266 280 277 264 279 325 3 27 22 31 17 8 14 358 359 348 354 355 358 356 344 347 341
211 227 163 149 154 168 183 183 189 200 185 183 184 189 170 139 157 149 149 148 152 156 155 159 162 160 157 160 160 159 155 153 151 143 139 150 157 151 151 155 161 159 159 157 159 160 147 158 161 161 158 163 165 174 188 219 212 197 219 173 193 231 245 239 252 247 75 67 48 46 63 42 26 13 14 6 359 346 339 336 341 346 347 345 343
192 192 177 176 186 191 193 193 200 195 183 176 178 172 151 149 150 154 149 150 156 164 165 168 166 163 166 168 166 160 157 156 162 161 157 160 172 172 166 170 170 169 160 166 159 169 180 170 163 163 159 158 178 193 202 200 216 179 186 185 200 218 223 199 231 144 106 110 94 57 66 37 35 16 357 353 337 341 337 341 344 340 341 336 338
166 192 185 195 196 198 200 195 202 178 172 173 177 160 155 155 154 152 154 155 162 162 158 157 159 160 166 169 165 165 163 158 156 161 163 164 174 177 175 156 99 140 178 166 171 181 184 182 170 166 162 167 184 199 209 195 202 191 188 194 209 218 202 210 212 124 113 96 111 74 83 42 33 20 357 350 338 342 344 346 341 337 343 337 338
204 178 203 217 215 207 198 201 193 167 171 173 169 158 163 158 153 157 159 161 159 155 155 166 166 170 169 166 168 167 166 165 165 164 154 122 71 113 130 162 155 174 178 195 170 178 179 166 165 178 176 166 181 177 191 195 196 201 202 197 198 187 171 157 140 114 123 103 77 83 56 47 32 16 354 347 346 345 341 345 342 342 339 338 344
190 186 229 222 229 224 212 208 191 161 179 176 170 172 168 168 164 164 166 164 157 161 168 170 174 184 181 177 172 171 174 171 171 167 160 149 139 147 155 157 162 160 154 151 163 157 158 161 160 157 175 172 155 169 185 190 199 202 197 189 172 162 147 132 132 108 60 91 81 64 48 36 29 6 341 344 344 344 341 336 332 331 329 340 337